| time (UTC) | temp F | wind direction | speed knots | gust knots | rain 1hr in | rain 24hr in | rain mn in | humidity % | barometer mb |
| 20260507054031 | 58 | 186 | 95.6 | 95.6 | 0.00 | 0.00 | 0.00 | 81 | 1013.1 |
| 20260507053529 | 58 | 310 | 95.6 | 95.6 | 0.00 | 0.00 | 0.00 | 81 | 1012.9 |
| 20260507053030 | 58 | 299 | 95.6 | 95.6 | 0.00 | 0.00 | 0.00 | 81 | 1013.0 |
| 20260507052529 | 58 | 295 | 95.6 | 95.6 | 0.00 | 0.00 | 0.00 | 81 | 1012.9 |
| 20260507051529 | 58 | 316 | 95.6 | 95.6 | 0.00 | 0.00 | 0.00 | 81 | 1012.7 |
| 20260507050529 | 58 | 232 | 95.6 | 95.6 | 0.00 | 0.00 | 0.00 | 82 | 1012.8 |
| 20260507050030 | 58 | 304 | 95.6 | 95.6 | 0.00 | 0.00 | 0.00 | 82 | 1012.7 |
| 20260507045528 | 58 | 202 | 95.6 | 95.6 | 0.00 | 0.00 | 0.00 | 82 | 1012.7 |
| 20260507044529 | 58 | 263 | 95.6 | 95.6 | 0.00 | 0.02 | 0.00 | 83 | 1012.6 |
| 20260507044030 | 58 | 269 | 95.6 | 95.6 | 0.00 | 0.02 | 0.00 | 83 | 1012.4 |
| 20260507043529 | 58 | 292 | 95.6 | 95.6 | 0.00 | 0.02 | 0.00 | 83 | 1012.3 |
| 20260507043031 | 58 | 315 | 95.6 | 95.6 | 0.00 | 0.02 | 0.00 | 83 | 1012.3 |
| 20260507042031 | 58 | 9 | 95.6 | 95.6 | 0.00 | 0.02 | 0.00 | 82 | 1012.3 |
| 20260507041529 | 58 | 287 | 95.6 | 95.6 | 0.00 | 0.02 | 0.00 | 83 | 1012.3 |
| 20260507041030 | 58 | 283 | 93.8 | 95.6 | 0.00 | 0.02 | 0.00 | 83 | 1012.1 |
| 20260507040529 | 57 | 311 | 32.2 | 57.4 | 0.00 | 0.02 | 0.00 | 82 | 1012.0 |
| 20260507040030 | 57 | 313 | 32.2 | 57.4 | 0.00 | 0.02 | 0.00 | 82 | 1012.0 |
| 20260507035533 | 57 | 315 | 2.6 | 40.8 | 0.00 | 0.02 | 0.00 | 82 | 1012.1 |
| 20260507035034 | 57 | 294 | 40.8 | 40.8 | 0.00 | 0.02 | 0.00 | 82 | 1012.0 |
| 20260507034532 | 57 | 20 | 0.0 | 0.0 | 0.00 | 0.02 | 0.00 | 82 | 1012.0 |
| 20260507034036 | 57 | 318 | 42.6 | 59.1 | 0.00 | 0.02 | 0.00 | 82 | 1012.0 |
| 20260507033529 | 57 | 315 | 52.1 | 59.1 | 0.00 | 0.02 | 0.00 | 82 | 1012.0 |
| 20260507033031 | 58 | 314 | 74.7 | 95.6 | 0.00 | 0.02 | 0.00 | 81 | 1011.9 |
| 20260507032530 | 58 | 90 | 57.4 | 59.1 | 0.00 | 0.02 | 0.00 | 81 | 1012.0 |
| 20260507032032 | 58 | 180 | 59.1 | 95.6 | 0.00 | 0.02 | 0.00 | 81 | 1011.9 |
| 20260507031530 | 58 | 311 | 38.2 | 59.1 | 0.00 | 0.02 | 0.00 | 81 | 1011.8 |
| 20260507031030 | 58 | 158 | 0.0 | 11.3 | 0.00 | 0.02 | 0.00 | 81 | 1012.0 |
| 20260507030530 | 58 | 271 | 0.0 | 0.0 | 0.00 | 0.02 | 0.00 | 81 | 1012.0 |
| 20260507030030 | 58 | 263 | 0.9 | 22.6 | 0.00 | 0.02 | 0.00 | 80 | 1011.9 |
| 20260507025529 | 59 | 180 | 2.6 | 22.6 | 0.00 | 0.02 | 0.00 | 80 | 1012.0 |
| 20260507025031 | 59 | 187 | 0.0 | 22.6 | 0.00 | 0.02 | 0.00 | 80 | 1012.0 |
| 20260507024529 | 59 | 283 | 0.0 | 22.6 | 0.00 | 0.02 | 0.00 | 80 | 1012.0 |
| 20260507024032 | 59 | 220 | 2.6 | 22.6 | 0.00 | 0.02 | 0.00 | 80 | 1012.0 |
| 20260507023534 | 59 | 322 | 8.7 | 22.6 | 0.00 | 0.02 | 0.00 | 80 | 1011.9 |
| 20260507023030 | 59 | 316 | 10.4 | 22.6 | 0.00 | 0.02 | 0.00 | 80 | 1011.7 |
| 20260507022529 | 59 | 292 | 0.0 | 0.0 | 0.00 | 0.02 | 0.00 | 80 | 1011.8 |
| 20260507022039 | 59 | 316 | 0.0 | 0.0 | 0.00 | 0.02 | 0.00 | 80 | 1011.9 |
| 20260507021530 | 60 | 135 | 0.0 | 0.0 | 0.00 | 0.02 | 0.00 | 79 | 1012.0 |
| 20260507021030 | 60 | 313 | 0.9 | 1.7 | 0.00 | 0.02 | 0.00 | 79 | 1012.0 |
| 20260507020529 | 60 | 349 | 0.0 | 1.7 | 0.00 | 0.02 | 0.00 | 79 | 1012.0 |
| 20260507020031 | 60 | 316 | 0.9 | 0.9 | 0.00 | 0.02 | 0.00 | 79 | 1012.0 |
| 20260507015529 | 60 | 324 | 0.0 | 0.0 | 0.00 | 0.02 | 0.00 | 79 | 1011.9 |
| 20260507015031 | 60 | 180 | 0.9 | 0.9 | 0.00 | 0.02 | 0.00 | 78 | 1011.9 |
| 20260507014030 | 60 | 308 | 0.0 | 1.7 | 0.00 | 0.02 | 0.00 | 78 | 1012.0 |
| 20260507013529 | 60 | 326 | 0.0 | 1.7 | 0.00 | 0.02 | 0.00 | 78 | 1012.0 |
| 20260507013030 | 60 | 173 | 0.9 | 1.7 | 0.00 | 0.02 | 0.00 | 78 | 1011.9 |
| 20260507012529 | 60 | 303 | 0.0 | 0.0 | 0.00 | 0.02 | 0.00 | 78 | 1012.1 |
| 20260507012030 | 60 | 303 | 0.0 | 0.0 | 0.00 | 0.02 | 0.00 | 77 | 1011.8 |
| 20260507011529 | 60 | 334 | 0.0 | 0.9 | 0.00 | 0.02 | 0.00 | 77 | 1011.8 |
| 20260507011031 | 60 | 89 | 1.7 | 1.7 | 0.00 | 0.02 | 0.00 | 77 | 1011.9 |
| 20260507010529 | 60 | 40 | 0.0 | 1.7 | 0.00 | 0.02 | 0.00 | 77 | 1011.8 |
| 20260507010031 | 61 | 319 | 0.0 | 0.0 | 0.00 | 0.02 | 0.00 | 76 | 1011.8 |
| 20260507005030 | 61 | 334 | 0.0 | 0.0 | 0.00 | 0.02 | 0.00 | 76 | 1012.0 |
| 20260507004529 | 61 | 316 | 0.0 | 0.0 | 0.00 | 0.02 | 0.00 | 76 | 1011.7 |
| 20260507004031 | 61 | 328 | 0.0 | 0.0 | 0.00 | 0.02 | 0.00 | 76 | 1012.0 |
| 20260507003543 | 61 | 344 | 0.0 | 0.0 | 0.00 | 0.02 | 0.00 | 76 | 1011.9 |
| 20260507003030 | 61 | 45 | 0.0 | 2.6 | 0.00 | 0.02 | 0.00 | 76 | 1011.9 |
| 20260507002531 | 61 | 134 | 0.9 | 0.9 | 0.00 | 0.02 | 0.00 | 75 | 1012.0 |
| 20260507002030 | 61 | 51 | 0.0 | 0.0 | 0.00 | 0.02 | 0.00 | 75 | 1011.9 |
| 20260507001543 | 62 | 292 | 0.0 | 0.0 | 0.00 | 0.02 | 0.00 | 75 | 1012.0 |
| 20260507000533 | 62 | 315 | 0.0 | 0.0 | 0.00 | 0.02 | 0.00 | 75 | 1012.1 |
| 20260507000030 | 62 | 84 | 0.0 | 0.0 | 0.00 | 0.02 | 0.00 | 75 | 1012.1 |
| 20260506235530 | 62 | 22 | 0.0 | 0.0 | 0.00 | 0.02 | 0.00 | 75 | 1012.0 |
| 20260506234529 | 62 | 248 | 0.0 | 0.9 | 0.00 | 0.02 | 0.00 | 74 | 1012.0 |
| 20260506234030 | 62 | 278 | 1.7 | 2.6 | 0.00 | 0.02 | 0.00 | 74 | 1012.0 |
| 20260506233529 | 62 | 309 | 1.7 | 2.6 | 0.00 | 0.02 | 0.00 | 74 | 1012.0 |
| 20260506233031 | 62 | 318 | 0.0 | 5.2 | 0.00 | 0.02 | 0.00 | 74 | 1012.0 |
| 20260506232529 | 62 | 325 | 0.9 | 4.3 | 0.00 | 0.02 | 0.00 | 74 | 1012.0 |
| 20260506232032 | 62 | 315 | 0.9 | 7.8 | 0.00 | 0.02 | 0.00 | 75 | 1011.7 |
| 20260506231529 | 62 | 315 | 4.3 | 7.8 | 0.00 | 0.02 | 0.00 | 75 | 1011.7 |
| 20260506231030 | 62 | 277 | 0.9 | 4.3 | 0.00 | 0.02 | 0.00 | 75 | 1011.9 |
| 20260506230030 | 63 | 313 | 2.6 | 5.2 | 0.00 | 0.02 | 0.00 | 74 | 1011.7 |
| 20260506225031 | 63 | 273 | 1.7 | 1.7 | 0.00 | 0.02 | 0.00 | 72 | 1012.0 |
| 20260506224530 | 63 | 289 | 1.7 | 2.6 | 0.00 | 0.02 | 0.00 | 73 | 1011.9 |
| 20260506223031 | 62 | 211 | 1.7 | 2.6 | 0.00 | 0.02 | 0.00 | 75 | 1011.7 |
| 20260506222529 | 62 | 190 | 0.0 | 0.0 | 0.00 | 0.02 | 0.00 | 75 | 1011.8 |
| 20260506222031 | 62 | 150 | 0.0 | 0.0 | 0.00 | 0.02 | 0.00 | 75 | 1011.8 |
| 20260506221529 | 62 | 135 | 0.0 | 0.0 | 0.00 | 0.02 | 0.00 | 75 | 1011.8 |
| 20260506221030 | 62 | 158 | 0.0 | 0.0 | 0.00 | 0.02 | 0.00 | 75 | 1011.9 |
| 20260506220533 | 62 | 158 | 0.0 | 0.0 | 0.00 | 0.02 | 0.00 | 75 | 1011.9 |
| 20260506220031 | 62 | 292 | 0.0 | 0.0 | 0.00 | 0.02 | 0.00 | 75 | 1011.9 |
| 20260506215039 | 62 | 315 | 0.9 | 1.7 | 0.00 | 0.02 | 0.02 | 76 | 1011.8 |
| 20260506214529 | 62 | 338 | 0.0 | 1.7 | 0.00 | 0.02 | 0.02 | 76 | 1011.9 |
| 20260506213529 | 62 | 315 | 1.7 | 1.7 | 0.00 | 0.02 | 0.02 | 76 | 1011.9 |
| 20260506213034 | 62 | 22 | 0.9 | 1.7 | 0.00 | 0.02 | 0.02 | 76 | 1011.9 |
| 20260506212529 | 62 | 29 | 0.0 | 1.7 | 0.00 | 0.02 | 0.02 | 76 | 1012.1 |
| 20260506212030 | 62 | 24 | 0.9 | 1.7 | 0.00 | 0.02 | 0.02 | 76 | 1012.0 |
| 20260506211030 | 62 | 22 | 0.0 | 0.0 | 0.00 | 0.02 | 0.02 | 76 | 1011.9 |
| 20260506210533 | 62 | 106 | 0.0 | 0.9 | 0.00 | 0.02 | 0.02 | 76 | 1011.8 |
| 20260506210034 | 62 | 225 | 0.0 | 2.6 | 0.00 | 0.02 | 0.02 | 76 | 1011.8 |
| 20260506205530 | 62 | 130 | 0.9 | 2.6 | 0.00 | 0.02 | 0.02 | 76 | 1012.0 |
| 20260506205030 | 62 | 140 | 0.9 | 1.7 | 0.00 | 0.02 | 0.02 | 76 | 1012.0 |
| 20260506204529 | 62 | 135 | 0.0 | 2.6 | 0.00 | 0.02 | 0.02 | 76 | 1012.0 |
| 20260506203530 | 62 | 129 | 2.6 | 6.1 | 0.00 | 0.02 | 0.02 | 76 | 1011.9 |
| 20260506203030 | 62 | 135 | 6.1 | 7.8 | 0.00 | 0.02 | 0.02 | 76 | 1011.8 |
| 20260506201529 | 63 | 152 | 2.6 | 4.3 | 0.00 | 0.02 | 0.02 | 75 | 1011.7 |
| 20260506201031 | 63 | 112 | 0.9 | 1.7 | 0.00 | 0.02 | 0.02 | 75 | 1011.7 |
| 20260506200033 | 63 | 111 | 0.0 | 0.0 | 0.00 | 0.02 | 0.02 | 74 | 1011.7 |
| 20260506195036 | 63 | 135 | 0.0 | 0.0 | 0.00 | 0.04 | 0.02 | 74 | 1011.7 |
| 20260506194532 | 63 | 135 | 0.0 | 0.0 | 0.00 | 0.04 | 0.02 | 74 | 1011.7 |
| 20260506194031 | 63 | 135 | 0.0 | 1.7 | 0.00 | 0.04 | 0.02 | 73 | 1011.6 |
| 20260506193032 | 63 | 139 | 0.0 | 0.9 | 0.00 | 0.04 | 0.02 | 73 | 1011.6 |
| 20260506192529 | 64 | 120 | 0.0 | 1.7 | 0.00 | 0.04 | 0.02 | 72 | 1011.4 |
| 20260506192033 | 64 | 168 | 0.0 | 0.0 | 0.00 | 0.04 | 0.02 | 72 | 1011.4 |
| 20260506191529 | 64 | 90 | 0.0 | 1.7 | 0.00 | 0.04 | 0.02 | 72 | 1011.3 |
| 20260506191032 | 64 | 80 | 0.0 | 1.7 | 0.00 | 0.04 | 0.02 | 72 | 1011.2 |
| 20260506190529 | 64 | 112 | 0.0 | 2.6 | 0.00 | 0.04 | 0.02 | 72 | 1011.1 |
| 20260506190030 | 64 | 125 | 0.9 | 0.9 | 0.00 | 0.04 | 0.02 | 71 | 1011.1 |
| 20260506185529 | 64 | 38 | 0.0 | 1.7 | 0.00 | 0.04 | 0.02 | 71 | 1011.0 |
| 20260506185030 | 64 | 4 | 0.9 | 1.7 | 0.00 | 0.04 | 0.02 | 70 | 1010.9 |
| 20260506184530 | 64 | 77 | 0.0 | 0.0 | 0.00 | 0.04 | 0.02 | 70 | 1010.9 |
| 20260506184047 | 64 | 232 | 0.0 | 1.7 | 0.00 | 0.04 | 0.02 | 70 | 1010.9 |
| 20260506183529 | 64 | 334 | 0.9 | 2.6 | 0.00 | 0.04 | 0.02 | 70 | 1010.6 |
| 20260506183031 | 64 | 317 | 0.9 | 1.7 | 0.00 | 0.04 | 0.02 | 70 | 1010.7 |
| 20260506182033 | 64 | 328 | 1.7 | 4.3 | 0.00 | 0.08 | 0.02 | 70 | 1010.4 |
| 20260506181528 | 65 | 324 | 2.6 | 7.8 | 0.00 | 0.08 | 0.02 | 69 | 1010.3 |
| 20260506181032 | 65 | 339 | 5.2 | 8.7 | 0.00 | 0.10 | 0.02 | 69 | 1010.3 |
| 20260506180528 | 65 | 353 | 3.5 | 7.0 | 0.00 | 0.12 | 0.02 | 68 | 1010.5 |
| 20260506180040 | 65 | 354 | 5.2 | 7.8 | 0.00 | 0.14 | 0.02 | 68 | 1010.2 |
| 20260506175029 | 66 | 342 | 4.3 | 7.8 | 0.00 | 0.16 | 0.02 | 67 | 1010.2 |
| 20260506174528 | 67 | 0 | 5.2 | 7.8 | 0.00 | 0.16 | 0.02 | 66 | 1009.9 |
| 20260506174034 | 67 | 342 | 3.5 | 7.0 | 0.00 | 0.16 | 0.02 | 66 | 1009.9 |
| 20260506173528 | 67 | 331 | 0.9 | 2.6 | 0.00 | 0.16 | 0.02 | 65 | 1010.0 |
| 20260506173029 | 67 | 321 | 1.7 | 5.2 | 0.00 | 0.18 | 0.02 | 65 | 1009.8 |
| 20260506172528 | 68 | 337 | 3.5 | 6.1 | 0.00 | 0.18 | 0.02 | 64 | 1009.8 |
| 20260506172030 | 68 | 349 | 0.9 | 2.6 | 0.00 | 0.18 | 0.02 | 64 | 1009.7 |
| 20260506171528 | 68 | 346 | 0.0 | 0.9 | 0.00 | 0.18 | 0.02 | 64 | 1009.7 |
| 20260506171030 | 68 | 8 | 0.0 | 1.7 | 0.00 | 0.18 | 0.02 | 64 | 1009.8 |
| 20260506170527 | 69 | 10 | 1.7 | 2.6 | 0.00 | 0.18 | 0.02 | 63 | 1009.7 |
| 20260506170029 | 69 | 347 | 0.0 | 0.9 | 0.00 | 0.18 | 0.02 | 63 | 1009.4 |
| 20260506165030 | 70 | 355 | 1.7 | 2.6 | 0.00 | 0.18 | 0.02 | 61 | 1009.5 |
| 20260506164530 | 70 | 13 | 0.9 | 1.7 | 0.00 | 0.18 | 0.02 | 61 | 1009.5 |
| 20260506163528 | 71 | 284 | 1.7 | 5.2 | 0.00 | 0.18 | 0.02 | 60 | 1009.5 |
| 20260506163030 | 72 | 318 | 3.5 | 7.8 | 0.00 | 0.18 | 0.02 | 59 | 1009.7 |
| 20260506162528 | 72 | 302 | 0.9 | 2.6 | 0.00 | 0.18 | 0.02 | 58 | 1009.5 |
| 20260506161528 | 72 | 139 | 2.6 | 7.0 | 0.00 | 0.18 | 0.02 | 57 | 1009.4 |
| 20260506161030 | 72 | 149 | 6.1 | 7.8 | 0.00 | 0.18 | 0.02 | 57 | 1009.5 |
| 20260506160528 | 72 | 153 | 5.2 | 7.0 | 0.00 | 0.18 | 0.02 | 57 | 1009.4 |
| 20260506160030 | 72 | 152 | 3.5 | 6.1 | 0.00 | 0.18 | 0.02 | 56 | 1009.5 |
| 20260506155528 | 73 | 151 | 1.7 | 6.1 | 0.00 | 0.18 | 0.02 | 56 | 1009.5 |
| 20260506155029 | 73 | 158 | 5.2 | 7.8 | 0.00 | 0.18 | 0.02 | 55 | 1009.4 |
| 20260506154531 | 73 | 167 | 5.2 | 7.8 | 0.00 | 0.18 | 0.02 | 55 | 1009.5 |
| 20260506154030 | 73 | 157 | 7.0 | 10.4 | 0.00 | 0.18 | 0.02 | 55 | 1009.4 |
| 20260506153528 | 73 | 168 | 4.3 | 10.4 | 0.00 | 0.18 | 0.02 | 55 | 1009.4 |
| 20260506152528 | 73 | 164 | 7.8 | 12.2 | 0.00 | 0.18 | 0.02 | 56 | 1009.5 |
| 20260506152030 | 73 | 150 | 5.2 | 8.7 | 0.00 | 0.18 | 0.02 | 56 | 1009.5 |
| 20260506151530 | 73 | 171 | 2.6 | 8.7 | 0.00 | 0.18 | 0.02 | 56 | 1009.4 |
| 20260506151034 | 73 | 156 | 7.8 | 10.4 | 0.00 | 0.18 | 0.02 | 56 | 1009.5 |
| 20260506150529 | 73 | 132 | 4.3 | 7.8 | 0.00 | 0.18 | 0.02 | 56 | 1009.3 |
| 20260506150030 | 73 | 170 | 5.2 | 8.7 | 0.00 | 0.18 | 0.02 | 56 | 1009.4 |
| 20260506144528 | 73 | 174 | 6.1 | 12.2 | 0.00 | 0.18 | 0.02 | 56 | 1009.3 |
| 20260506144029 | 73 | 180 | 7.8 | 10.4 | 0.00 | 0.18 | 0.02 | 56 | 1009.3 |
| 20260506143529 | 73 | 166 | 8.7 | 12.2 | 0.00 | 0.18 | 0.02 | 55 | 1009.4 |
| 20260506142538 | 74 | 157 | 8.7 | 11.3 | 0.00 | 0.18 | 0.02 | 54 | 1009.4 |
| 20260506142030 | 74 | 178 | 8.7 | 14.8 | 0.00 | 0.18 | 0.02 | 54 | 1009.3 |
| 20260506141529 | 74 | 143 | 8.7 | 13.9 | 0.00 | 0.18 | 0.02 | 54 | 1009.4 |
| 20260506141040 | 74 | 170 | 10.4 | 13.9 | 0.00 | 0.18 | 0.02 | 54 | 1009.2 |
| 20260506140538 | 74 | 185 | 11.3 | 14.8 | 0.00 | 0.18 | 0.02 | 54 | 1009.6 |
| 20260506140033 | 74 | 164 | 10.4 | 12.2 | 0.00 | 0.18 | 0.02 | 55 | 1009.8 |
| 20260506135533 | 74 | 159 | 10.4 | 17.4 | 0.00 | 0.18 | 0.02 | 55 | 1009.5 |
| 20260506135029 | 74 | 155 | 13.9 | 19.1 | 0.00 | 0.18 | 0.02 | 54 | 1009.8 |
| 20260506134529 | 74 | 149 | 11.3 | 14.8 | 0.00 | 0.18 | 0.02 | 55 | 1009.9 |
| 20260506134030 | 74 | 158 | 10.4 | 15.6 | 0.00 | 0.18 | 0.02 | 56 | 1010.1 |
| 20260506133528 | 73 | 205 | 11.3 | 14.8 | 0.00 | 0.18 | 0.02 | 56 | 1010.0 |
| 20260506133030 | 73 | 167 | 6.1 | 13.9 | 0.00 | 0.18 | 0.02 | 56 | 1010.2 |
| 20260506132528 | 72 | 166 | 8.7 | 18.2 | 0.00 | 0.18 | 0.02 | 56 | 1010.3 |
| 20260506132030 | 72 | 150 | 9.6 | 18.2 | 0.00 | 0.18 | 0.02 | 57 | 1010.3 |
| 20260506131528 | 72 | 180 | 7.8 | 13.0 | 0.00 | 0.18 | 0.02 | 57 | 1010.3 |
| 20260506131029 | 72 | 193 | 7.8 | 12.2 | 0.00 | 0.18 | 0.02 | 58 | 1010.4 |
| 20260506130528 | 72 | 168 | 5.2 | 10.4 | 0.00 | 0.18 | 0.02 | 58 | 1010.5 |
| 20260506130040 | 72 | 106 | 7.8 | 12.2 | 0.00 | 0.18 | 0.02 | 59 | 1010.5 |
| 20260506125529 | 72 | 140 | 6.1 | 7.8 | 0.00 | 0.18 | 0.02 | 59 | 1010.5 |
| 20260506125029 | 72 | 141 | 5.2 | 10.4 | 0.00 | 0.18 | 0.02 | 60 | 1010.6 |
| 20260506124528 | 72 | 164 | 1.7 | 5.2 | 0.00 | 0.18 | 0.02 | 61 | 1010.7 |
| 20260506123529 | 71 | 229 | 0.0 | 1.7 | 0.00 | 0.18 | 0.02 | 61 | 1010.8 |
| 20260506123034 | 71 | 210 | 0.9 | 4.3 | 0.00 | 0.18 | 0.02 | 61 | 1010.8 |
| 20260506122528 | 71 | 163 | 1.7 | 5.2 | 0.00 | 0.18 | 0.02 | 61 | 1010.8 |
| 20260506122030 | 71 | 198 | 3.5 | 5.2 | 0.00 | 0.18 | 0.02 | 61 | 1010.8 |
| 20260506121029 | 71 | 206 | 2.6 | 6.1 | 0.00 | 0.18 | 0.02 | 62 | 1010.8 |
| 20260506120528 | 71 | 189 | 4.3 | 7.0 | 0.00 | 0.18 | 0.02 | 61 | 1010.8 |
| 20260506120029 | 71 | 195 | 3.5 | 6.1 | 0.00 | 0.18 | 0.02 | 62 | 1010.9 |
| 20260506114528 | 71 | 189 | 7.0 | 10.4 | 0.00 | 0.18 | 0.02 | 63 | 1010.9 |
| 20260506113528 | 70 | 170 | 7.8 | 13.9 | 0.00 | 0.18 | 0.02 | 64 | 1010.8 |
| 20260506113032 | 70 | 182 | 10.4 | 13.9 | 0.00 | 0.18 | 0.02 | 63 | 1010.9 |
| 20260506112528 | 69 | 202 | 7.8 | 14.8 | 0.00 | 0.18 | 0.02 | 64 | 1010.9 |
| 20260506112029 | 69 | 202 | 10.4 | 14.8 | 0.00 | 0.18 | 0.02 | 65 | 1011.0 |
| 20260506111528 | 69 | 164 | 7.8 | 11.3 | 0.00 | 0.18 | 0.02 | 65 | 1011.1 |
| 20260506111030 | 69 | 161 | 6.1 | 12.2 | 0.00 | 0.18 | 0.02 | 66 | 1011.0 |
| 20260506110531 | 69 | 160 | 5.2 | 11.3 | 0.00 | 0.18 | 0.02 | 66 | 1011.3 |
| 20260506105531 | 69 | 189 | 6.1 | 8.7 | 0.00 | 0.18 | 0.02 | 66 | 1011.4 |
| 20260506105033 | 69 | 167 | 7.8 | 10.4 | 0.00 | 0.18 | 0.02 | 65 | 1011.3 |
| 20260506104529 | 69 | 202 | 4.3 | 8.7 | 0.00 | 0.18 | 0.02 | 66 | 1011.4 |
| 20260506104030 | 69 | 158 | 3.5 | 7.0 | 0.00 | 0.18 | 0.02 | 66 | 1011.3 |
| 20260506103029 | 69 | 191 | 5.2 | 7.0 | 0.00 | 0.18 | 0.02 | 66 | 1011.3 |
| 20260506102528 | 69 | 168 | 4.3 | 10.4 | 0.00 | 0.18 | 0.02 | 66 | 1011.4 |
| 20260506102029 | 69 | 156 | 5.2 | 8.7 | 0.00 | 0.18 | 0.02 | 66 | 1011.4 |
| 20260506101530 | 69 | 166 | 6.1 | 10.4 | 0.00 | 0.18 | 0.02 | 66 | 1011.4 |
| 20260506101031 | 69 | 174 | 5.2 | 10.4 | 0.00 | 0.18 | 0.02 | 66 | 1011.4 |
| 20260506100034 | 69 | 156 | 4.3 | 8.7 | 0.00 | 0.18 | 0.02 | 66 | 1011.2 |
| 20260506095528 | 69 | 131 | 3.5 | 10.4 | 0.00 | 0.18 | 0.02 | 66 | 1011.2 |
| 20260506095034 | 69 | 169 | 2.6 | 6.1 | 0.00 | 0.18 | 0.02 | 67 | 1011.3 |
| 20260506094531 | 69 | 135 | 2.6 | 7.8 | 0.00 | 0.18 | 0.02 | 67 | 1011.3 |
| 20260506094029 | 69 | 338 | 2.6 | 5.2 | 0.00 | 0.18 | 0.02 | 67 | 1011.3 |
| 20260506093528 | 69 | 185 | 5.2 | 7.0 | 0.00 | 0.18 | 0.02 | 67 | 1011.3 |
| 20260506093030 | 69 | 143 | 4.3 | 7.8 | 0.00 | 0.18 | 0.02 | 68 | 1011.4 |
| 20260506092528 | 69 | 135 | 0.9 | 5.2 | 0.00 | 0.18 | 0.02 | 69 | 1011.4 |
| 20260506092029 | 68 | 225 | 2.6 | 4.3 | 0.00 | 0.18 | 0.02 | 69 | 1011.4 |
| 20260506091528 | 68 | 203 | 4.3 | 7.0 | 0.00 | 0.18 | 0.02 | 69 | 1011.4 |
| 20260506090530 | 68 | 162 | 5.2 | 7.0 | 0.00 | 0.18 | 0.02 | 70 | 1011.3 |
| 20260506085528 | 67 | 215 | 0.9 | 5.2 | 0.00 | 0.18 | 0.02 | 70 | 1011.3 |
| 20260506084033 | 66 | 180 | 6.1 | 10.4 | 0.00 | 0.18 | 0.02 | 71 | 1011.2 |
| 20260506083528 | 66 | 99 | 4.3 | 7.8 | 0.00 | 0.18 | 0.02 | 72 | 1011.2 |
| 20260506083030 | 66 | 173 | 7.0 | 13.0 | 0.00 | 0.18 | 0.02 | 72 | 1011.1 |
| 20260506082528 | 66 | 167 | 8.7 | 13.0 | 0.00 | 0.18 | 0.02 | 73 | 1011.2 |
| 20260506081528 | 65 | 170 | 2.6 | 4.3 | 0.00 | 0.18 | 0.02 | 74 | 1011.0 |
| 20260506080530 | 65 | 186 | 5.2 | 7.0 | 0.00 | 0.18 | 0.02 | 75 | 1011.1 |
| 20260506073030 | 63 | 158 | 2.6 | 7.0 | 0.00 | 0.20 | 0.02 | 81 | 1010.9 |
| 20260506072030 | 62 | 114 | 5.2 | 8.7 | 0.00 | 0.20 | 0.02 | 84 | 1010.9 |
| 20260506071529 | 62 | 120 | 4.3 | 8.7 | 0.00 | 0.20 | 0.02 | 85 | 1011.1 |
| 20260506062029 | 60 | 285 | 0.0 | 0.0 | 0.00 | 0.26 | 0.02 | 86 | 1011.7 |
| 20260506061527 | 60 | 280 | 0.0 | 0.0 | 0.00 | 0.26 | 0.02 | 86 | 1011.6 |
| 20260506061029 | 60 | 292 | 0.0 | 0.0 | 0.00 | 0.26 | 0.02 | 86 | 1011.6 |
| 20260506060529 | 60 | 300 | 0.0 | 0.0 | 0.00 | 0.26 | 0.02 | 86 | 1011.7 |